Regional Weather Roundup
Issued by NWS Newport/Morehead, NC

Current Version | Previous Version | Graphics & Text | Print | Product List | Glossary On
Versions: 1 2 3 4 5 6 7 8 9 10 11 12 13 14 15 16 17 18 19 20 21 22 23 24 25 26 27 28 29 30 31 32 33 34 35 36 37 38 39 40 41 42 43 44 45 46 47 48 49 50
000 ASUS42 KMHX 030213 RWRMHX WEATHER ROUNDUP FOR EASTERN NORTH CAROLINA NATIONAL WEATHER SERVICE NEWPORT/MOREHEAD CITY NC 1000 PM EDT SUN AUG 02 2015 NOTE: "FAIR" INDICATES FEW OR NO CLOUDS BELOW 12,000 FEET WITH NO SIGNIFICANT WEATHER AND/OR OBSTRUCTIONS TO VISIBILITY NCZ015>017-031-032-045>047-102-103-030300- NORTH COAST CITY SKY/WX TMP DP RH WIND PRES REMARKS EDENTON N/A 76 72 88 S7 29.96R ELIZABETH CITY LGT RAIN 77 72 84 W7 29.93S KITTY HAWK MOCLDY 82 73 75 SW9 29.91S MANTEO MOCLDY 81 76 83 SW9 29.93S $$ NCZ045>047-081-094-103-104-030300- CENTRAL COAST CITY SKY/WX TMP DP RH WIND PRES REMARKS FRISCO CLEAR 80 74 81 SW10G21 29.96R SWANQUARTER N/A 81 N/A N/A SW17 29.91S $$ NCZ095-097-098-100-101-030300- SOUTHERN COAST CITY SKY/WX TMP DP RH WIND PRES REMARKS BEAUFORT PTCLDY 79 75 87 SW14 29.96R CEDAR ISLAND N/A 79 N/A N/A S9 30.00R JACKSONVILLE CLEAR 77 72 84 CALM 29.94S PINEY ISLAND CLEAR N/A N/A N/A SW9 29.95R WILMINGTON CLEAR 77 72 84 S5 29.93F $$ NCZ011>013-027>030-043-044-078>080-089-090>093-098-030300- COASTAL PLAIN CITY SKY/WX TMP DP RH WIND PRES REMARKS AHOSKIE PTCLDY 72 67 84 SE6 29.96R CLINTON CLEAR 78 73 84 CALM 29.94R ELIZABETHTOWN CLEAR 78 72 82 CALM 29.93S GOLDSBORO CLEAR 80 73 79 CALM 29.93R GREENVILLE CLEAR 81 73 78 SW5 29.96R HAVELOCK CLEAR 77 72 84 S3 29.96R KENANSVILLE CLEAR 77 71 82 CALM 29.95R KINSTON CLEAR 79 73 83 S6 29.95R NEW BERN CLEAR 78 72 81 SW5 29.96R RICHLANDS CLEAR 75 66 73 CALM 29.96R ROCKY MOUNT MOCLDY 78 63 59 CALM 29.94R WASHINGTON CLEAR 79 73 83 CALM 29.96R WHITEVILLE CLEAR 77 73 87 CALM 29.93R $$ AMZ130-135-150-152-154-156-158-170-250-252-270-ANZ085-086-088-633-658-670-030300- MARINE OBSERVATIONS STATION/POSITION TIME TEMP WIND PRES WAVE SWELL AIR SEA DIR/SP/G HT/PER HT/PER (UTC) (F) (DEG/KT/KT) (MB) (FT/S) (FT/S) CHESAPEAKE LIGHT 0200 81 60/ 1/ 2 1014.2 64 E VA BEACH 0150 82 81 210/ 8/ 10 1013.0 3/12 2/12 DUCK 0100 78 73 260/ 3/ 16 1012.4 2 E DUCK 0111 80 N/A 3/12 2/12 OREGON INLET 0100 83 86 200/ 16/ 18 1013.2 13E OREGON INLT 0200 81 N/A 3/11 2/11 HATTERAS CG 0100 80 83 220/ 11/ 17 1013.4 DIAMOND BUOY 0150 81 85 230/ 16/ 17 1014.3 4/ 4 2/ 7 CAPE LOOKOUT 0200 79 220/ 12/ 15 1014.0 BEAUFORT LAB 0100 80 84 210/ 11/ 16 1013.2 30 SE NEW RVR IN NOT AVBL 27 SE WRIGHTSVLE 0100 77 83 210/ 14/ 16 N/A 5 SE WRIGHTSVLE 0108 81 83 190/ 14/ 17 1013.7 225 S CAPE HAT 0150 81 81 210/ 4/ 6 1016.8 5/ 7 5/ 7 41 SE CHARLESTON 0150 79 83 160/ 21/ 25 1013.2 4/ 5 2/11 $$

USA.gov is the U.S. government's official web portal to all federal, state and local government web resources and services.